Time,TemperatureF,DewpointF,PressureIn,WindDirection,WindDirectionDegrees,WindSpeedMPH,WindSpeedGustMPH,Humidity,HourlyPrecipIn,Conditions,Clouds,dailyrainin,SoftwareType,DateUTC
2013-02-20 00:00:00,39.0,27.8,29.65,SE,135,6.0,19.0,64,0.19,,,0.00,Weather View 32 v70,2013-02-20 05:00:00,
2013-02-20 00:02:00,39.0,27.8,29.65,SE,135,6.0,19.0,64,0.19,,,0.00,Weather View 32 v70,2013-02-20 05:02:00,
2013-02-20 00:31:00,39.0,26.7,29.61,SE,135,7.0,17.0,61,0.23,,,0.15,Weather View 32 v70,2013-02-20 05:31:00,
2013-02-20 01:00:00,40.0,26.4,29.60,SSE,157,9.0,19.0,58,0.27,,,0.27,Weather View 32 v70,2013-02-20 06:00:00,
2013-02-20 01:01:00,40.0,26.4,29.60,SSE,157,9.0,19.0,58,0.27,,,0.27,Weather View 32 v70,2013-02-20 06:01:00,
2013-02-20 01:31:00,40.0,25.5,29.56,SE,135,12.0,23.0,56,0.28,,,0.43,Weather View 32 v70,2013-02-20 06:31:00,
2013-02-20 02:00:00,41.0,25.6,29.53,SSE,157,15.0,26.0,54,0.24,,,0.51,Weather View 32 v70,2013-02-20 07:00:00,
2013-02-20 02:01:00,41.0,25.6,29.53,SSE,157,15.0,26.0,54,0.24,,,0.51,Weather View 32 v70,2013-02-20 07:01:00,
2013-02-20 02:30:00,41.0,24.2,29.50,SSE,157,10.0,26.0,51,0.19,,,0.62,Weather View 32 v70,2013-02-20 07:30:00,
2013-02-20 03:00:00,41.0,23.3,29.47,SE,135,7.0,25.0,49,0.22,,,0.73,Weather View 32 v70,2013-02-20 08:00:00,
2013-02-20 03:30:00,41.0,22.8,29.42,SE,135,10.0,25.0,48,0.18,,,0.80,Weather View 32 v70,2013-02-20 08:30:00,
2013-02-20 04:02:00,40.0,21.4,29.39,SE,135,12.0,20.0,47,0.08,,,0.81,Weather View 32 v70,2013-02-20 09:02:00,
2013-02-20 04:32:00,39.0,19.9,29.38,SE,135,6.0,20.0,46,0.03,,,0.83,Weather View 32 v70,2013-02-20 09:32:00,
2013-02-20 05:02:00,40.0,19.8,29.37,SSE,157,12.0,20.0,44,0.04,,,0.85,Weather View 32 v70,2013-02-20 10:02:00,
2013-02-20 05:31:00,40.0,18.2,29.36,SW,225,8.0,20.0,41,0.02,,,0.85,Weather View 32 v70,2013-02-20 10:31:00,
2013-02-20 06:01:00,40.0,17.0,29.36,SW,225,11.0,15.0,39,0.00,,,0.85,Weather View 32 v70,2013-02-20 11:01:00,
2013-02-20 06:32:00,39.0,14.9,29.37,WSW,247,6.0,16.0,37,0.00,,,0.85,Weather View 32 v70,2013-02-20 11:32:00,
2013-02-20 07:01:00,36.0,30.1,29.39,WNW,292,9.0,25.0,79,0.01,,,0.86,Weather View 32 v70,2013-02-20 12:01:00,
2013-02-20 07:31:00,34.0,31.1,29.43,WNW,292,7.0,25.0,89,0.01,,,0.86,Weather View 32 v70,2013-02-20 12:31:00,
2013-02-20 08:01:00,34.0,33.7,29.44,WNW,292,15.0,23.0,99,0.00,,,0.86,Weather View 32 v70,2013-02-20 13:01:00,
2013-02-20 08:31:00,34.0,34.0,29.46,West,270,7.0,22.0,100,0.00,,,0.86,Weather View 32 v70,2013-02-20 13:31:00,
2013-02-20 08:37:00,34.0,34.0,29.46,West,270,7.0,22.0,100,0.00,,,0.86,Weather View 32 v70,2013-02-20 13:37:00,
2013-02-20 09:02:00,34.0,34.0,29.47,WNW,292,8.0,21.0,100,0.00,,,0.86,Weather View 32 v70,2013-02-20 14:02:00,
2013-02-20 09:30:00,35.0,34.0,29.48,WNW,292,17.0,21.0,96,0.00,,,0.86,Weather View 32 v70,2013-02-20 14:30:00,
2013-02-20 09:32:00,35.0,34.0,29.48,WNW,292,17.0,21.0,96,0.00,,,0.86,Weather View 32 v70,2013-02-20 14:32:00,
2013-02-20 10:02:00,35.0,34.5,29.48,West,270,10.0,19.0,98,0.00,,,0.86,Weather View 32 v70,2013-02-20 15:02:00,
2013-02-20 10:30:00,36.0,34.4,29.48,NNW,337,7.0,19.0,94,0.00,,,0.86,Weather View 32 v70,2013-02-20 15:30:00,
2013-02-20 10:31:00,36.0,34.4,29.48,NNW,337,7.0,19.0,94,0.00,,,0.86,Weather View 32 v70,2013-02-20 15:31:00,
2013-02-20 11:01:00,36.0,31.6,29.48,WSW,247,6.0,20.0,84,0.00,,,0.86,Weather View 32 v70,2013-02-20 16:01:00,
2013-02-20 11:30:00,37.0,25.6,29.47,WNW,292,15.0,20.0,63,0.00,,,0.86,Weather View 32 v70,2013-02-20 16:30:00,
2013-02-20 11:33:00,37.0,25.6,29.47,WNW,292,15.0,20.0,63,0.00,,,0.86,Weather View 32 v70,2013-02-20 16:33:00,
2013-02-20 12:01:00,38.0,26.1,29.46,NW,315,12.0,20.0,62,0.00,,,0.86,Weather View 32 v70,2013-02-20 17:01:00,
2013-02-20 12:30:00,37.0,28.1,29.46,West,270,9.0,21.0,70,0.00,,,0.86,Weather View 32 v70,2013-02-20 17:30:00,
2013-02-20 12:31:00,37.0,28.1,29.46,West,270,9.0,21.0,70,0.00,,,0.86,Weather View 32 v70,2013-02-20 17:31:00,
2013-02-20 13:01:00,37.0,28.5,29.45,SSW,202,13.0,21.0,71,0.00,,,0.86,Weather View 32 v70,2013-02-20 18:01:00,
2013-02-20 13:30:00,36.0,26.1,29.45,WSW,247,15.0,26.0,67,0.00,,,0.86,Weather View 32 v70,2013-02-20 18:30:00,
2013-02-20 13:32:00,36.0,26.1,29.45,WSW,247,15.0,26.0,67,0.00,,,0.86,Weather View 32 v70,2013-02-20 18:32:00,
2013-02-20 14:02:00,37.0,26.7,29.45,West,270,8.0,26.0,66,0.00,,,0.86,Weather View 32 v70,2013-02-20 19:02:00,
2013-02-20 14:30:00,35.0,26.2,29.46,WSW,247,9.0,21.0,70,0.00,,,0.86,Weather View 32 v70,2013-02-20 19:30:00,
2013-02-20 14:32:00,35.0,26.2,29.46,WSW,247,9.0,21.0,70,0.00,,,0.86,Weather View 32 v70,2013-02-20 19:32:00,
2013-02-20 15:00:00,34.0,26.6,29.46,West,270,10.0,19.0,74,0.00,,,0.86,Weather View 32 v70,2013-02-20 20:00:00,
2013-02-20 15:32:00,34.0,26.9,29.48,West,270,9.0,17.0,75,0.00,,,0.86,Weather View 32 v70,2013-02-20 20:32:00,
2013-02-20 16:03:00,33.0,25.9,29.48,West,270,9.0,17.0,75,0.00,,,0.86,Weather View 32 v70,2013-02-20 21:03:00,
2013-02-20 16:31:00,33.0,25.6,29.50,WNW,292,6.0,16.0,74,0.00,,,0.86,Weather View 32 v70,2013-02-20 21:31:00,
2013-02-20 17:01:00,33.0,25.6,29.50,WNW,292,10.0,16.0,74,0.00,,,0.86,Weather View 32 v70,2013-02-20 22:01:00,
2013-02-20 17:31:00,32.0,24.3,29.53,WNW,292,3.0,16.0,73,0.00,,,0.86,Weather View 32 v70,2013-02-20 22:31:00,
2013-02-20 18:02:00,32.0,23.3,29.54,WNW,292,13.0,20.0,70,0.00,,,0.86,Weather View 32 v70,2013-02-20 23:02:00,
2013-02-20 18:31:00,31.0,22.0,29.55,WNW,292,8.0,21.0,69,0.00,,,0.86,Weather View 32 v70,2013-02-20 23:31:00,
2013-02-20 19:02:00,30.0,21.4,29.55,WNW,292,11.0,21.0,70,0.00,,,0.86,Weather View 32 v70,2013-02-21 00:02:00,
2013-02-20 19:32:00,30.0,20.7,29.56,WNW,292,11.0,20.0,68,0.00,,,0.86,Weather View 32 v70,2013-02-21 00:32:00,
2013-02-20 20:02:00,29.0,20.1,29.56,West,270,6.0,20.0,69,0.00,,,0.86,Weather View 32 v70,2013-02-21 01:02:00,
2013-02-20 20:34:00,29.0,21.4,29.58,WNW,292,7.0,19.0,73,0.00,,,0.86,Weather View 32 v70,2013-02-21 01:34:00,
2013-02-20 21:01:00,29.0,21.8,29.58,WNW,292,5.0,19.0,74,0.00,,,0.86,Weather View 32 v70,2013-02-21 02:01:00,
2013-02-20 21:07:00,29.0,21.8,29.58,WNW,292,5.0,19.0,74,0.00,,,0.86,Weather View 32 v70,2013-02-21 02:07:00,
2013-02-20 21:33:00,28.0,18.5,29.59,NW,315,16.0,22.0,67,0.00,,,0.86,Weather View 32 v70,2013-02-21 02:33:00,
2013-02-20 22:00:00,28.0,18.8,29.60,WNW,292,13.0,23.0,68,0.00,,,0.86,Weather View 32 v70,2013-02-21 03:00:00,
2013-02-20 22:04:00,28.0,18.8,29.60,WNW,292,13.0,23.0,68,0.00,,,0.86,Weather View 32 v70,2013-02-21 03:04:00,
2013-02-20 22:31:00,27.0,19.5,29.60,WSW,247,6.0,23.0,73,0.00,,,0.86,Weather View 32 v70,2013-02-21 03:31:00,
2013-02-20 23:00:00,27.0,20.8,29.60,WSW,247,7.0,20.0,77,0.00,,,0.86,Weather View 32 v70,2013-02-21 04:00:00,
2013-02-20 23:02:00,27.0,20.8,29.60,WSW,247,7.0,20.0,77,0.00,,,0.86,Weather View 32 v70,2013-02-21 04:02:00,
2013-02-20 23:31:00,26.0,21.0,29.61,WSW,247,12.0,20.0,81,0.00,,,0.86,Weather View 32 v70,2013-02-21 04:31:00,